[Date Prev][Date Next][Thread Prev][Thread Next] - [Date Index][Thread Index][Author Index]
2 Line ISS Keps 10-3
- Subject: [sarex] 2 Line ISS Keps 10-3
- From: "Dave Larsen PhD" <doc@xxxxxxxxxxx>
- Date: Fri, 3 Oct 2003 06:49:04 -0700
ISS
1 25544U 98067A 03276.16825611 .00024434 00000-0 27977-3 0 5851
2 25544 51.6302 196.1208 0006418 359.4711 148.6368 15.61961186277876
----
Via the sarex mailing list at AMSAT.ORG courtesy of AMSAT-NA.
To unsubscribe, send "unsubscribe sarex" to Majordomo@amsat.org
AMSAT Home